EVA220 RCKH-RCTP

Flight info

Callsign EVA220
Flight time 0h 37m
Altitude 19000
Route TNN2G TNN TNN1A
Aircraft B77L/H-SDE1E2E3FGHIJ2J3J4J5M1RWXY/LB1D1

Departure

Time 2026-04-15 13:55
Airport Kaohsiung International Airport (RCKH)

Arrival

Time 2026-04-15 14:33
Airport Taiwan Taoyuan International Airport (RCTP)
Time Latitude Longitude Altitude Speed Heading
2026-04-15 13:37 22.57172 120.34427 41 ft 0 kts 181°
2026-04-15 13:45 22.57174 120.34427 43 ft 3 kts 181°
2026-04-15 13:47 22.57210 120.34482 32 ft 0 kts 273°
2026-04-15 13:51 22.57210 120.34481 32 ft 2 kts 273°
2026-04-15 13:51 22.57213 120.34405 42 ft 13 kts 272°
2026-04-15 13:51 22.57250 120.34332 42 ft 11 kts 340°
2026-04-15 13:52 22.57323 120.34326 42 ft 10 kts
2026-04-15 13:52 22.57391 120.34316 42 ft 9 kts 332°
2026-04-15 13:52 22.57408 120.34277 43 ft 6 kts 272°
2026-04-15 13:52 22.57407 120.34142 43 ft 28 kts 271°
2026-04-15 13:53 22.57412 120.33932 42 ft 27 kts 273°
2026-04-15 13:53 22.57422 120.33731 42 ft 26 kts 282°
2026-04-15 13:53 22.57528 120.33586 42 ft 24 kts 317°
2026-04-15 13:53 22.57626 120.33508 42 ft 16 kts 345°
2026-04-15 13:54 22.57730 120.33524 42 ft 15 kts 42°
2026-04-15 13:54 22.57751 120.33626 42 ft 14 kts 92°
2026-04-15 13:54 22.57746 120.33760 43 ft 30 kts 92°
2026-04-15 13:54 22.57733 120.34181 43 ft 92 kts 91°
2026-04-15 13:55 22.57704 120.35130 42 ft 158 kts 92°
2026-04-15 13:55 22.57668 120.36476 107 ft 196 kts 98°
2026-04-15 13:55 22.57564 120.37908 840 ft 185 kts 89°
2026-04-15 13:55 22.57336 120.39284 1445 ft 193 kts 121°
2026-04-15 13:56 22.56265 120.40170 1922 ft 209 kts 166°
2026-04-15 13:56 22.54812 120.39981 2305 ft 219 kts 213°
2026-04-15 13:56 22.54269 120.39505 2567 ft 220 kts 233°
2026-04-15 13:56 22.53418 120.38130 3097 ft 224 kts 227°
2026-04-15 13:57 22.52070 120.37231 3685 ft 231 kts 205°
2026-04-15 13:57 22.50609 120.36461 4373 ft 233 kts 207°
2026-04-15 13:57 22.49158 120.35648 5062 ft 238 kts 208°
2026-04-15 13:57 22.47689 120.34820 5802 ft 237 kts 209°
2026-04-15 13:58 22.46331 120.33835 6422 ft 236 kts 231°
2026-04-15 13:58 22.45617 120.32274 6998 ft 235 kts 262°
2026-04-15 13:58 22.45774 120.30473 7294 ft 252 kts 291°
2026-04-15 13:58 22.46532 120.28762 7897 ft 253 kts 297°
2026-04-15 13:59 22.47339 120.27054 8559 ft 258 kts 297°
2026-04-15 13:59 22.48156 120.25317 9286 ft 259 kts 296°
2026-04-15 13:59 22.48981 120.23551 9923 ft 264 kts 296°
2026-04-15 13:59 22.49802 120.21783 10683 ft 263 kts 296°
2026-04-15 14:00 22.50629 120.19995 11304 ft 269 kts 296°
2026-04-15 14:00 22.51492 120.18202 11897 ft 276 kts 302°
2026-04-15 14:00 22.52901 120.16762 12494 ft 288 kts 329°
2026-04-15 14:00 22.54837 120.16128 13205 ft 297 kts 354°
2026-04-15 14:01 22.59046 120.16347 14562 ft 307 kts
2026-04-15 14:01 22.61189 120.16536 15314 ft 309 kts
2026-04-15 14:01 22.63337 120.16726 16055 ft 311 kts
2026-04-15 14:02 22.65506 120.16911 16770 ft 314 kts
2026-04-15 14:02 22.67702 120.17093 17449 ft 318 kts
2026-04-15 14:02 22.69919 120.17270 18158 ft 321 kts
2026-04-15 14:02 22.72158 120.17446 18733 ft 323 kts
2026-04-15 14:03 22.74418 120.17621 19039 ft 327 kts
2026-04-15 14:03 22.76671 120.17794 19025 ft 330 kts
2026-04-15 14:03 22.78958 120.17969 19037 ft 328 kts
2026-04-15 14:03 22.81225 120.18143 19040 ft 326 kts
2026-04-15 14:04 22.83481 120.18316 19040 ft 325 kts
2026-04-15 14:04 22.85742 120.18488 19043 ft 325 kts
2026-04-15 14:04 22.88001 120.18659 19044 ft 325 kts 360°
2026-04-15 14:04 22.90259 120.18831 19047 ft 326 kts 360°
2026-04-15 14:05 22.92524 120.19003 19047 ft 326 kts 360°
2026-04-15 14:05 22.94785 120.19174 19043 ft 326 kts 360°
2026-04-15 14:05 22.97048 120.19346 19045 ft 327 kts 360°
2026-04-15 14:05 22.99317 120.19519 19044 ft 327 kts 360°
2026-04-15 14:06 23.01588 120.19692 19042 ft 327 kts 360°
2026-04-15 14:06 23.03863 120.19865 19044 ft 328 kts 360°
2026-04-15 14:06 23.06138 120.20039 19041 ft 328 kts 360°
2026-04-15 14:06 23.08414 120.20212 19041 ft 328 kts 360°
2026-04-15 14:07 23.10693 120.20386 19039 ft 328 kts 360°
2026-04-15 14:07 23.12972 120.20559 19036 ft 328 kts 360°
2026-04-15 14:07 23.15251 120.20767 19034 ft 329 kts
2026-04-15 14:07 23.17525 120.21033 19033 ft 329 kts
2026-04-15 14:08 23.19798 120.21315 19032 ft 328 kts
2026-04-15 14:08 23.22069 120.21598 19033 ft 328 kts
2026-04-15 14:08 23.24339 120.21878 19025 ft 328 kts
2026-04-15 14:08 23.26577 120.22151 19024 ft 328 kts
2026-04-15 14:09 23.28848 120.22426 19022 ft 328 kts
2026-04-15 14:09 23.31120 120.22699 19022 ft 328 kts
2026-04-15 14:09 23.33383 120.22971 19025 ft 328 kts
2026-04-15 14:09 23.35648 120.23243 19021 ft 328 kts
2026-04-15 14:10 23.37927 120.23515 18975 ft 333 kts
2026-04-15 14:10 23.40307 120.23795 19029 ft 355 kts
2026-04-15 14:10 23.42845 120.24092 19044 ft 379 kts
2026-04-15 14:10 23.45550 120.24412 19052 ft 401 kts
2026-04-15 14:11 23.48401 120.24752 19048 ft 422 kts
2026-04-15 14:11 23.51369 120.25110 19044 ft 434 kts
2026-04-15 14:11 23.54389 120.25478 19036 ft 437 kts
2026-04-15 14:11 23.57410 120.25846 19034 ft 437 kts
2026-04-15 14:12 23.60435 120.26213 19026 ft 436 kts
2026-04-15 14:12 23.63415 120.26572 19023 ft 436 kts
2026-04-15 14:12 23.66440 120.26935 19022 ft 436 kts
2026-04-15 14:12 23.69449 120.27296 19021 ft 436 kts
2026-04-15 14:13 23.72437 120.27863 19017 ft 437 kts 11°
2026-04-15 14:13 23.75361 120.28812 19030 ft 439 kts 14°
2026-04-15 14:13 23.78267 120.29877 19029 ft 440 kts 15°
2026-04-15 14:13 23.81167 120.30966 19027 ft 441 kts 15°
2026-04-15 14:14 23.84069 120.32042 19026 ft 441 kts 15°
2026-04-15 14:14 23.86984 120.33098 19025 ft 442 kts 15°
2026-04-15 14:14 23.89909 120.34136 19021 ft 442 kts 14°
2026-04-15 14:14 23.92839 120.35162 19022 ft 442 kts 14°
2026-04-15 14:15 23.95771 120.36180 19022 ft 442 kts 14°
2026-04-15 14:15 23.98699 120.37194 19022 ft 441 kts 14°
2026-04-15 14:15 24.01375 120.38120 19031 ft 441 kts 14°
2026-04-15 14:15 24.04322 120.39141 19039 ft 441 kts 14°
2026-04-15 14:16 24.07247 120.40156 19046 ft 441 kts 14°
2026-04-15 14:16 24.10135 120.41158 19052 ft 441 kts 14°
2026-04-15 14:16 24.13064 120.42176 19057 ft 441 kts 14°
2026-04-15 14:16 24.15987 120.43193 19060 ft 440 kts 14°
2026-04-15 14:17 24.18861 120.44195 19051 ft 427 kts 14°
2026-04-15 14:17 24.21651 120.45170 18919 ft 417 kts 14°
2026-04-15 14:17 24.24441 120.46140 18213 ft 422 kts 14°
2026-04-15 14:17 24.27237 120.47113 17611 ft 420 kts 14°
2026-04-15 14:18 24.30012 120.48079 17074 ft 416 kts 14°
2026-04-15 14:18 24.32757 120.49037 16576 ft 412 kts 14°
2026-04-15 14:18 24.35475 120.49986 16070 ft 408 kts 14°
2026-04-15 14:18 24.38169 120.50926 15590 ft 404 kts 14°
2026-04-15 14:19 24.40834 120.51856 15105 ft 400 kts 14°
2026-04-15 14:19 24.43474 120.52779 14625 ft 397 kts 14°
2026-04-15 14:19 24.46105 120.53698 14130 ft 394 kts 14°
2026-04-15 14:19 24.48711 120.54609 13625 ft 392 kts 14°
2026-04-15 14:20 24.51296 120.55513 13099 ft 388 kts 14°
2026-04-15 14:20 24.53820 120.56396 12612 ft 384 kts 14°
2026-04-15 14:20 24.56366 120.57288 12138 ft 380 kts 14°
2026-04-15 14:20 24.58870 120.58165 11675 ft 376 kts 14°
2026-04-15 14:21 24.61353 120.59035 11219 ft 372 kts 14°
2026-04-15 14:21 24.63808 120.59895 10874 ft 365 kts 14°
2026-04-15 14:21 24.66185 120.60734 10721 ft 351 kts 15°
2026-04-15 14:21 24.68326 120.61911 10548 ft 342 kts 35°
2026-04-15 14:22 24.70068 120.63609 10420 ft 328 kts 40°
2026-04-15 14:22 24.71719 120.65284 10283 ft 318 kts 40°
2026-04-15 14:22 24.73326 120.66902 10143 ft 307 kts 39°
2026-04-15 14:22 24.74876 120.68451 10009 ft 296 kts 39°
2026-04-15 14:23 24.76388 120.69953 9756 ft 290 kts 39°
2026-04-15 14:23 24.77864 120.71412 9443 ft 287 kts 39°
2026-04-15 14:23 24.79341 120.72868 9133 ft 283 kts 39°
2026-04-15 14:23 24.80809 120.74315 8840 ft 284 kts 39°
2026-04-15 14:24 24.82297 120.75780 8530 ft 290 kts 39°
2026-04-15 14:24 24.83808 120.77267 8225 ft 293 kts 40°
2026-04-15 14:24 24.85325 120.78763 7899 ft 291 kts 40°
2026-04-15 14:24 24.86823 120.80239 7571 ft 287 kts 40°
2026-04-15 14:25 24.88303 120.81699 7256 ft 284 kts 40°
2026-04-15 14:25 24.89754 120.83130 6958 ft 280 kts 40°
2026-04-15 14:25 24.91120 120.84627 6628 ft 273 kts 56°
2026-04-15 14:25 24.91797 120.86563 6368 ft 274 kts 84°
2026-04-15 14:26 24.91802 120.88686 6067 ft 280 kts 95°
2026-04-15 14:26 24.91682 120.90850 5739 ft 283 kts 95°
2026-04-15 14:26 24.91570 120.92964 5578 ft 273 kts 95°
2026-04-15 14:26 24.91467 120.95015 5440 ft 262 kts 95°
2026-04-15 14:27 24.91371 120.97007 5162 ft 257 kts 95°
2026-04-15 14:27 24.91278 120.98957 4893 ft 253 kts 95°
2026-04-15 14:27 24.91451 121.00819 4607 ft 245 kts 69°
2026-04-15 14:27 24.92313 121.02400 4390 ft 236 kts 54°
2026-04-15 14:28 24.93324 121.03814 4087 ft 232 kts 50°
2026-04-15 14:28 24.94356 121.05141 3802 ft 228 kts 49°
2026-04-15 14:28 24.95372 121.06430 3534 ft 218 kts 49°
2026-04-15 14:28 24.96350 121.07670 3246 ft 209 kts 49°
2026-04-15 14:29 24.97279 121.08851 2981 ft 202 kts 49°
2026-04-15 14:29 24.98178 121.09997 2744 ft 191 kts 48°
2026-04-15 14:29 24.99026 121.11077 2474 ft 178 kts 48°
2026-04-15 14:29 24.99819 121.12086 2280 ft 173 kts 48°
2026-04-15 14:30 25.00593 121.13071 2045 ft 168 kts 48°
2026-04-15 14:30 25.01331 121.14012 1833 ft 154 kts 48°
2026-04-15 14:30 25.02025 121.14895 1667 ft 153 kts 49°
2026-04-15 14:30 25.02731 121.15794 1439 ft 155 kts 49°
2026-04-15 14:31 25.03432 121.16687 1261 ft 153 kts 49°
2026-04-15 14:31 25.04121 121.17565 1056 ft 150 kts 49°
2026-04-15 14:31 25.04791 121.18418 846 ft 149 kts 50°
2026-04-15 14:31 25.05471 121.19279 665 ft 149 kts 50°
2026-04-15 14:32 25.06149 121.20145 484 ft 149 kts 51°
2026-04-15 14:32 25.06828 121.21012 258 ft 148 kts 51°
2026-04-15 14:32 25.07497 121.21860 109 ft 145 kts 51°
2026-04-15 14:32 25.08088 121.22615 109 ft 109 kts 49°
2026-04-15 14:33 25.08486 121.23119 108 ft 64 kts 49°
2026-04-15 14:33 25.08667 121.23373 109 ft 20 kts 64°
2026-04-15 14:33 25.08705 121.23481 106 ft 15 kts 75°
2026-04-15 14:33 25.08722 121.23579 105 ft 13 kts 79°
2026-04-15 14:34 25.08737 121.23667 106 ft 0 kts 79°
2026-04-15 14:34 25.08737 121.23668 106 ft 0 kts 79°
2026-04-15 14:34 25.08737 121.23671 106 ft 1 kts 80°
2026-04-15 14:34 25.08738 121.23677 107 ft 1 kts 80°
2026-04-15 14:35 25.08740 121.23687 108 ft 2 kts 80°
2026-04-15 14:35 25.08742 121.23701 106 ft 2 kts 80°
2026-04-15 14:35 25.08745 121.23717 106 ft 2 kts 80°
2026-04-15 14:35 25.08748 121.23736 106 ft 3 kts 80°
2026-04-15 14:36 25.08749 121.23742 106 ft 3 kts 80°
2026-04-15 14:36 25.08753 121.23771 108 ft 3 kts 79°